Location: La Capelle-Bleys
(44.2943°N, 2.1830°E)
Time: 13:41:55
(UTC+00:00)

Daily predictions for brighter satellites

Satellite Brightness Start Highest point End
(mag) Time Altitude Azimuth Time Altitude Azimuth Time Altitude Azimuth
Cosmos 1624 Rocket 4.0 19:27:56 10° SSW 19:33:05 79° ESE 19:38:17 10° NNE
Cosmos 1862 4.2 19:32:23 10° NNW 19:35:47 44° W 19:39:10 10° SSW
Cosmos 1980 Rocket 3.5 19:31:09 10° N 19:35:53 26° NE 19:40:35 10° ESE
GEOS 3 Rocket 4.0 19:35:06 10° SSE 19:40:21 66° SW 19:45:43 10° NW
USA 229 DEB 4.2 19:34:11 10° NW 19:41:44 73° NE 19:50:02 10° SE
USA 229 4.2 19:34:14 10° NW 19:41:48 73° NE 19:50:06 10° SE
SL-24 R/B 4.1 19:37:47 10° NNE 19:42:19 82° E 19:46:37 10° SSW
Okean O Rocket 3.1 19:39:20 10° ESE 19:42:33 21° ENE 19:45:48 10° NNE
CZ-4 R/B 1.1 19:39:15 10° SSE 19:42:52 74° ENE 19:46:30 10° N
ISS -2.9 19:40:28 10° SSW 19:43:23 28° SE 19:46:19 10° ENE
CZ-4B R/B 3.9 19:41:24 10° SSE 19:45:24 90° NNW 19:49:27 10° NNW
CZ-4C R/B 2.0 19:44:57 10° S 19:48:39 38° ESE 19:53:10 10° NE
Meteor 2-3 Rocket 3.9 19:44:10 10° N 19:49:41 54° ENE 19:55:12 10° SSE
CSL-04 Rocket 4.1 19:46:00 10° S 19:51:29 69° WSW 19:56:57 10° NNW
Cosmos 1833 Rocket 2.8 19:46:10 10° SSW 19:51:47 87° WNW 19:57:26 10° NNE
CZ-4B DEB 4.2 19:46:31 10° SSE 19:52:00 78° ENE 19:57:33 10° NNW
Cosmos 292 Rocket 4.1 19:48:03 10° NNW 19:52:43 52° ENE 19:57:17 10° SE
ARIANE 6 FM1 Upper Stage 4.5 19:49:33 10° WNW 19:52:48 24° WSW 19:56:02 10° S
ATLAS 2AS CENTAUR R/B 3.3 19:46:14 10° SW 19:53:09 64° NW 19:59:57 10° NNE
CZ-4B R/B 3.4 19:48:57 10° SSE 19:54:30 60° ENE 20:00:03 10° N
Okean-O 3.7 19:53:00 11° SE 19:56:37 28° ENE 20:00:21 10° N
Cosmos 1455 Rocket 4.0 19:56:44 10° SSE 20:00:32 29° E 20:04:20 10° NNE
Gbstr 26 Del rocket 4.0 19:57:03 10° WNW 20:02:12 47° NNE 20:06:26 10° E
Spot 2 Rocket 4.1 19:57:48 11° SE 20:02:15 39° ENE 20:06:54 10° N
MetOp-B 4.2 19:57:08 10° SSE 20:02:27 71° ENE 20:07:47 10° N
SL-4 R/B 1.8 19:59:19 10° WNW 20:03:09 78° SSW 20:06:19 15° SE
Cosmos 2173 Rocket 4.0 20:01:18 10° S 20:07:22 69° E 20:13:32 10° NNE
Okean 1 Rocket 3.0 20:03:11 10° S 20:07:31 69° E 20:11:55 10° NNE
Cosmos 332 Rocket 4.1 20:03:31 10° NNW 20:08:14 64° WSW 20:12:54 10° S
ADEOS 3.6 20:03:04 10° SSE 20:08:14 70° ENE 20:13:26 10° N
PAYLOAD B 4.4 20:09:43 10° S 20:15:12 78° WSW 20:20:46 10° NNW
Helios 1A Rocket 2.8 20:13:24 10° N 20:16:32 61° WNW 20:19:37 10° SSW
Meteor 1-27 4.5 20:15:46 10° SSE 20:21:11 48° E 20:26:34 10° NNE
ERS-1 Rocket 3.3 20:18:08 10° S 20:23:05 65° WSW 20:28:06 10° NNW
SKYMED 3 4.4 20:22:16 10° N 20:26:14 82° WNW 20:30:10 10° SSW
SJ 16-02 4.1 20:26:39 10° WNW 20:28:25 12° W 20:30:10 10° WSW
ATLAS 3B R/B 3.0 20:21:22 10° NW 20:29:10 85° SW 20:34:57 18° SSE
Cosmos 2082 Rocket 2.7 20:24:52 10° S 20:30:07 39° ESE 20:35:24 10° NE
Cosmos 1452 Rocket 3.4 20:24:57 10° S 20:30:08 70° ESE 20:35:22 10° NNE
DELTA 2 R/B (1) 4.2 20:25:16 10° SW 20:30:12 33° SSE 20:33:42 17° ESE
DEBRIS 3.2 20:27:51 10° WSW 20:30:26 67° NNW 20:36:55 10° ENE
Cosmos 1741 Rocket 4.0 20:27:38 10° NNW 20:32:59 77° ENE 20:36:43 20° SSE
SL-08 R/B 3.3 20:29:47 10° NNE 20:34:40 87° W 20:39:25 10° SSW
Sich 1 Rocket 3.8 20:30:48 10° SSW 20:35:07 68° W 20:39:29 10° N
Cosmos 1802 Rocket 3.9 20:30:48 10° S 20:37:00 81° E 20:43:10 10° N
Cosmos 1331 Rocket 4.2 20:31:49 10° SSW 20:37:03 73° WNW 20:42:17 10° NNE
Cosmos 968 Rocket 4.0 20:33:16 10° NNW 20:38:25 58° WSW 20:42:54 14° S
CZ-4B R/B 4.3 20:36:55 21° ESE 20:39:17 33° ENE 20:43:33 10° N
YAOGAN 11 4.0 20:36:39 10° NNE 20:41:05 73° ESE 20:45:19 11° S
Cosmos 1302 Rocket 4.0 20:41:22 10° S 20:46:25 59° ESE 20:51:31 10° NNE
MOS 1-B 4.3 20:44:42 18° SSE 20:49:07 88° W 20:54:58 10° NNW
CZ-2C R/B 3.9 20:49:47 17° ENE 20:49:47 17° ENE 20:51:30 10° NNE
Terra 3.0 20:47:04 10° SSW 20:51:25 38° W 20:55:48 10° NNW
Cosmos 1697 Rocket 3.6 20:46:14 10° NW 20:51:30 42° WSW 20:56:06 13° S
NOSS 3-3 (A) 3.8 20:47:47 10° S 20:52:32 45° ESE 20:58:04 10° NE
Cosmos 2151 4.4 20:49:45 10° NNE 20:52:58 22° ENE 20:53:43 21° E
Milstar 3 4.2 20:47:52 10° SW 20:53:31 25° S 20:56:26 21° SSE
Meteor 2-12 Rocket 4.4 20:47:43 10° N 20:53:49 71° E 20:57:39 24° SSE
COSMOS 2406 4.0 20:54:42 27° SE 20:56:16 31° ESE 21:01:13 10° NE
SL-16 R/B 3.7 20:52:54 10° N 20:57:35 25° NE 21:00:34 17° E
Cosmos 2228 2.8 20:58:22 26° S 21:00:41 81° E 21:04:47 10° N
USA 186 2.0 21:00:42 40° SW 21:01:12 47° W 21:03:50 10° NNW
USA 306 2.4 20:58:27 10° SW 21:00:59 44° SW 21:00:59 44° SW
Cosmos 1743 2.6 20:59:26 10° NNW 21:02:23 53° W 21:03:16 36° SSW
Cosmos 1782 2.6 21:00:48 25° SSW 21:02:42 73° W 21:06:14 10° N
SPOT 3 Rocket 3.5 21:02:10 30° SSE 21:04:42 71° ENE 21:09:50 10° N
Cosmos 44 Rocket 4.3 21:04:22 10° SW 21:09:17 50° NW 21:14:21 10° NNE
Cosmos 2333 Rocket 3.5 21:08:07 10° N 21:13:03 29° NE 21:15:41 21° E
Cosmos 1626 Rocket 3.8 21:09:28 10° N 21:13:43 51° ENE 21:14:41 42° ESE
Cosmos 1607 3.9 21:07:43 10° SW 21:13:52 86° NW 21:20:10 10° NE
CZ-4B R/B 2.2 21:13:31 65° SSE 21:13:57 84° ENE 21:17:20 10° NNW
Okean O Rocket 2.7 21:15:58 20° SSW 21:18:30 38° W 21:22:32 10° NNW
Cosmos 2233 Rocket 4.1 21:14:27 14° SSW 21:19:52 77° W 21:26:05 10° N
ISS -2.8 21:16:49 10° W 21:20:04 47° NNW 21:23:19 10° NE
Cosmos 1980 Rocket 2.6 21:14:39 10° NNW 21:20:13 56° WSW 21:23:05 28° S
NOSS 3-3 (C) 3.6 21:17:31 20° SSW 21:21:00 61° ESE 21:26:54 10° NE
Cosmos 1933 3.7 21:27:23 42° ENE 21:27:23 42° ENE 21:30:39 10° NNE
USA 305 2.7 21:23:09 10° NW 21:27:08 55° NNE 21:27:31 52° ENE
IRS-1C Rocket 4.0 21:25:22 39° SSE 21:27:26 87° ENE 21:32:44 10° NNW
Geosat 4.1 21:27:11 10° NE 21:32:04 51° ESE 21:32:49 47° SE
Okean-O 4.2 21:30:19 17° SW 21:32:49 29° W 21:36:38 10° NW
Tsikada Rocket 4.2 21:26:59 10° NNW 21:33:04 65° W 21:36:32 27° SSW
BREEZE-M DEB (TANK) 4.2 21:30:03 10° WNW 21:33:42 50° SSW 21:36:33 33° SSE
Ariane Rocket 2.9 21:33:20 42° S 21:35:03 81° WSW 21:40:09 10° NNW
Cosmos 2098 Rocket 3.9 21:34:55 39° ESE 21:35:15 39° E 21:39:38 10° NNE
CZ-4C R/B 3.8 21:33:03 10° W 21:36:54 30° NW 21:41:39 10° NNE
IRS-P2 Rocket 4.5 21:35:34 46° SSE 21:37:11 82° ENE 21:42:28 10° NNW
SL-4 R/B 4.2 21:38:01 10° W 21:39:46 14° SW 21:39:46 14° SW
Cosmos 2360 Rocket 3.5 21:41:26 10° N 21:46:24 30° NE 21:48:24 24° E
Cosmos 2084 Rocket 3.2 21:42:37 10° NW 21:46:51 84° SW 21:47:04 79° S
Cosmos 1437 Rocket 2.9 21:48:46 59° NNE 21:48:46 59° NNE 21:51:44 10° NNE
Gbstr 26 Del rocket 3.3 21:44:03 10° WNW 21:48:34 49° SW 21:48:34 49° SW
Cosmos 1544 Rocket 3.7 21:49:36 52° SW 21:50:32 70° W 21:54:53 10° N
USA 234 3.5 21:51:29 10° ENE 21:57:36 42° SE 21:57:36 42° SE
Cosmos 2237 4.5 21:54:20 10° NNW 21:59:59 60° WSW 22:01:26 46° SSW
Cosmos 2219 Rocket 3.7 21:58:28 10° N 22:03:12 26° NE 22:05:14 22° E
BREEZE-M DEB (TANK) 4.2 22:03:58 10° WNW 22:04:53 16° NW 22:04:53 16° NW
Cosmos 1805 4.3 22:03:13 10° N 22:05:16 34° N 22:05:16 34° N
Cosmos 1758 Rocket 4.3 22:04:04 10° NNW 22:08:14 45° W 22:08:49 42° WSW
Cosmos 1777 Rocket 4.4 22:05:26 10° N 22:10:31 49° ENE 22:11:10 46° E
Cosmos 2082 Rocket 3.7 22:09:02 10° WSW 22:14:12 35° NW 22:19:26 10° N
Cosmos 2322 Rocket 2.6 22:09:18 10° NNW 22:14:50 51° ENE 22:15:56 44° E
DELTA 2 R/B (1) 4.2 22:10:39 10° WSW 22:14:26 39° SW 22:14:26 39° SW
Cosmos 1464 Rocket 3.8 22:18:24 54° S 22:19:56 90° W 22:26:07 10° N
Cosmos 1375 Rocket 4.5 22:18:45 33° SW 22:21:53 86° WNW 22:28:31 10° NNE
Cosmos 1486 Rocket 3.9 22:18:23 10° NNW 22:23:39 72° ENE 22:24:02 69° ESE
Cosmos 1825 Rocket 3.7 22:19:48 10° N 22:23:40 66° NNE 22:23:40 66° NNE
Cosmos 1953 Rocket 4.4 22:22:21 10° N 22:25:57 42° NE 22:25:57 42° NE
ALOS 2 4.1 22:27:20 26° ENE 22:27:20 26° ENE 22:30:50 10° N
Meteor 1-5 Rocket 4.2 22:21:39 10° NNW 22:27:21 84° W 22:28:14 66° S
ARIANE 5 R/B 3.8 22:27:36 32° ENE 22:27:36 32° ENE 22:31:20 10° N
Cosmos 220 Rocket 4.4 22:29:24 57° NNW 22:29:24 57° NNW 22:32:48 10° NNE
Cosmos 2151 4.3 22:26:08 10° NNW 22:29:46 31° W 22:29:47 31° W
Cosmos 1602 Rocket 4.4 22:29:35 10° NNW 22:33:31 41° W 22:33:31 41° W
Cosmos 2278 3.5 22:29:25 10° NNW 22:35:10 83° WSW 22:35:41 74° S
COSMOS 2406 4.2 22:36:39 20° WSW 22:40:21 43° WNW 22:45:50 10° NNE
SL-16 R/B 2.4 22:36:28 10° NNW 22:42:02 58° WSW 22:42:24 57° SW
Cosmos 1092 Rocket 4.0 22:38:46 10° N 22:44:53 63° E 22:45:38 58° ESE
Helios 1A 3.7 22:41:08 10° N 22:44:22 46° NW 22:44:22 46° NW
Cosmos-2242 3.9 22:51:19 41° NNE 22:51:19 41° NNE 22:54:10 10° NNE
CZ-2C R/B 4.2 22:46:39 10° NNE 22:50:07 51° NE 22:50:07 51° NE
Helios 1B rocket 3.8 22:55:06 30° NNW 22:55:06 30° NNW 22:57:04 10° NNW
Cosmos 2034 Rocket 4.1 22:53:27 58° SW 22:54:42 75° W 23:01:06 10° N
ISS -1.3 22:54:40 10° WNW 22:57:24 23° N 22:57:24 23° N
Cosmos 2333 Rocket 2.6 22:52:05 10° NW 22:57:34 49° WSW 22:57:41 49° WSW
CZ-2C R/B 4.2 22:56:34 22° E 22:57:34 24° ENE 23:01:42 10° NNE
Cosmos 1833 4.0 23:04:37 86° SE 23:04:40 86° ESE 23:10:20 10° NNE
Meteor 2-2 Rocket 4.1 23:09:39 86° SSE 23:09:45 88° E 23:15:30 10° N
Cosmos 468 Rocket 4.5 23:11:08 50° ENE 23:11:08 50° ENE 23:15:29 10° NNE
Cosmos 2221 4.2 23:14:13 25° NE 23:14:13 25° NE 23:16:29 10° NNE
Cosmos 2297 Rocket 4.2 23:18:41 15° E 23:18:41 15° E 23:20:59 10° ENE
Cosmos 540 Rocket 3.6 23:18:15 71° NW 23:18:15 71° NW 23:23:15 10° NNE
Cosmos 1634 Rocket 3.8 23:22:44 72° SW 23:23:18 80° W 23:29:32 10° N
Cosmos 2279 Rocket 3.8 23:25:15 73° SE 23:25:40 76° E 23:31:56 10° N
Cosmos 2333 4.4 23:20:38 10° NNW 23:25:59 60° W 23:25:59 60° W
NOSS 3-4 (A) 3.9 23:21:49 10° NW 23:28:39 64° WSW 23:29:36 60° SSW
NOSS 3-4 (C) 3.9 23:22:25 10° NW 23:29:17 65° WSW 23:30:16 60° SSW
Cosmos 1898 Rocket 4.2 23:25:22 10° N 23:30:18 42° ENE 23:30:35 42° ENE
Cosmos 2360 Rocket 2.8 23:25:10 10° NW 23:30:08 45° W 23:30:08 45° W
RESURS DK-1 4.3 23:29:10 10° N 23:32:11 23° NE 23:32:11 23° NE
USA 234 3.5 23:34:22 10° NE 23:40:50 65° NNW 23:44:53 24° WSW
Meteor 1-11 Rocket 4.2 23:37:57 10° N 23:43:30 50° ENE 23:43:52 49° E
Cosmos 1763 Rocket 4.5 23:43:38 37° W 23:44:23 39° WNW 23:49:21 10° N
Cosmos 2219 Rocket 2.6 23:41:56 10° NNW 23:46:54 52° W 23:46:54 52° W
ARGOS Delta rocket 4.3 23:42:42 10° N 23:47:34 58° WNW 23:47:34 58° WNW
